CDT,Max TemperatureF,Mean TemperatureF,Min TemperatureF,Max Dew PointF,MeanDew PointF,Min DewpointF,Max Humidity, Mean Humidity, Min Humidity, Max Sea Level PressureIn, Mean Sea Level PressureIn, Min Sea Level PressureIn, Max VisibilityMiles, Mean VisibilityMiles, Min VisibilityMiles, Max Wind SpeedMPH, Mean Wind SpeedMPH, Max Gust SpeedMPH,PrecipitationIn, CloudCover, Events, WindDirDegrees
2013-8-1,84,72,59,70,63,59,100,90,50,30.12,30.08,30.00,10,4,0,5,1,,0.00,0,Fog,303
2013-8-2,75,70,65,74,71,65,100,94,78,30.01,29.97,29.91,10,8,0,28,7,41,1.57,4,Fog-Rain-Thunderstorm,149
2013-8-3,82,75,69,75,72,70,100,95,74,30.12,30.02,29.92,10,7,1,12,6,21,1.93,6,Rain-Thunderstorm,288
2013-8-4,72,70,68,71,69,66,100,96,80,30.18,30.13,30.06,10,9,1,9,6,,0.35,6,Rain-Thunderstorm,105
2013-8-5,79,72,66,76,69,66,100,98,82,30.10,30.02,29.88,10,6,0,13,7,,2.52,7,Fog-Rain-Thunderstorm,145
2013-8-6,83,75,68,75,71,69,100,97,77,29.98,29.92,29.84,10,5,0,18,7,33,5.60,6,Fog-Rain-Thunderstorm,175
2013-8-7,84,76,68,75,70,68,100,96,69,30.03,29.94,29.86,10,7,1,24,10,31,2.24,6,Rain-Thunderstorm,34
2013-8-8,80,74,69,75,70,32,100,90,25,30.03,29.96,29.89,10,8,0,12,4,17,1.78,5,Fog-Rain-Thunderstorm,339
2013-8-9,74,71,69,74,71,66,100,97,85,30.08,30.03,29.97,10,7,0,14,5,,0.70,7,Fog-Rain-Thunderstorm,57
2013-8-10,81,74,66,72,68,66,100,93,65,30.17,30.12,30.08,10,6,0,8,4,,0.48,6,Fog-Rain,71
2013-8-11,84,74,65,74,67,61,100,78,61,30.14,30.10,30.05,10,10,10,8,5,,0.00,2,,116
2013-8-12,81,76,70,77,73,70,100,94,74,30.07,30.02,29.96,10,8,0,13,5,24,0.91,6,Fog-Rain-Thunderstorm,225
2013-8-13,79,72,65,69,66,61,100,90,59,30.12,30.04,29.99,10,5,0,9,3,,0.00,1,Fog,335
2013-8-14,73,66,58,62,56,53,94,72,51,30.20,30.15,30.12,10,10,10,9,6,,0.00,0,,68
2013-8-15,72,62,53,57,55,53,100,76,53,30.17,30.13,30.08,10,10,10,8,4,,0.00,3,,84
2013-8-16,72,63,55,60,58,56,100,82,63,30.16,30.13,30.09,10,10,10,9,4,,0.00,2,,62
2013-8-17,77,66,55,64,61,55,100,83,63,30.19,30.15,30.11,10,10,7,9,4,,0.00,1,,41
2013-8-18,79,68,57,66,64,57,100,84,63,30.18,30.14,30.09,10,10,4,8,4,,0.00,0,,76
2013-8-19,82,70,59,72,64,59,100,93,59,30.15,30.11,30.04,10,5,0,6,2,,0.00,0,Fog,144
2013-8-20,84,73,62,71,68,63,100,80,54,30.14,30.09,30.04,10,10,8,9,4,,0.00,1,,158
2013-8-21,87,74,63,74,69,63,100,81,56,30.14,30.10,30.06,10,10,10,8,4,,0.00,0,,183
2013-8-22,88,77,66,76,71,66,100,83,52,30.13,30.09,30.05,10,10,10,7,3,,0.00,0,,183
2013-8-23,89,78,67,74,71,68,100,80,53,30.11,30.08,30.04,10,10,7,7,3,,0.00,1,,135
2013-8-24,90,79,69,73,69,60,100,77,36,30.20,30.16,30.09,10,10,5,13,7,,0.00,0,,134
2013-8-25,89,77,65,74,69,66,100,79,45,30.25,30.21,30.17,10,10,7,9,6,,0.00,0,,150
2013-8-26,91,81,72,76,73,71,100,80,53,30.23,30.17,30.10,10,10,5,6,5,,0.00,0,,194
2013-8-27,89,79,70,74,71,68,98,76,50,30.13,30.08,30.04,10,10,10,7,4,,0.00,1,,217
2013-8-28,89,78,67,76,71,68,100,81,56,30.11,30.06,30.03,10,10,10,8,3,,0.00,0,,226
2013-8-29,92,80,68,79,73,68,100,80,54,30.10,30.04,29.99,10,10,10,7,3,,0.00,0,,229
2013-8-30,93,84,74,77,74,72,100,76,52,30.01,29.95,29.88,10,10,10,7,4,,0.00,0,,218
2013-8-31,95,84,73,78,74,71,92,74,46,29.91,29.85,29.79,10,10,10,6,4,,0.00,0,,216